[[{"header":{"parameterUnit":"m.s-1","parameterCategory":1,"la1":30.2991,"la2":30.254,"lo1":-89.0895,"lo2":-89.0444,"dy":0.0017,"dx":0.0017,"nx":28,"ny":28,"refTime":"2025-11-11T03:00:00:Z","depth":0,"parameterNumber":2,"parameterNumberName":"U-component_of_WINDS"},"data":[0,0,0,0,0,0,0,0,0,0,0,0,0,0,0,0,0,0,0,0,0,0,0,0,0,0,0,0,0,0,0,0,0,0,0,0,0,0,0,0,0,0,0,0,0,0,0,0,0,0,0,0,0,0,0,0,0,0,2.1171,2.1172,0,2.1289,2.129,2.1292,2.1301,2.13,2.1298,2.1297,2.1421,2.1425,2.1429,0,0,0,0,0,0,0,0,0,0,0,0,0,2.0953,2.0957,2.117,2.1172,2.1173,2.1289,2.1291,2.1292,2.1301,2.13,2.1298,2.1297,2.1419,2.1424,2.143,0,0,0,0,0,0,0,0,0,0,0,0,0,2.1057,2.0958,2.117,2.1192,2.1195,2.1289,2.1291,2.1293,2.1302,2.13,2.1298,2.1296,2.1417,2.1424,2.1431,2.1511,0,0,2.1451,2.1454,0,0,0,0,0,0,0,0,2.1051,2.1065,2.1187,2.119,2.1194,2.1278,2.1259,2.1366,2.1302,2.1261,2.1297,2.1295,2.1375,2.1385,2.1412,2.1517,2.1522,2.1452,2.1456,2.1459,2.1461,0,0,0,0,0,0,0,2.1044,2.106,2.1217,2.1189,2.1193,2.1196,2.1209,2.1279,2.1328,2.1265,2.1266,2.1279,2.1376,2.1405,2.1415,2.1524,2.1452,2.1458,2.1462,2.1464,2.1701,2.1703,0,0,0,0,0,0,2.1033,2.1054,2.1214,2.1221,2.1116,2.1202,2.1216,2.1253,2.1327,2.1336,2.1281,2.1279,2.1395,2.1407,2.1419,2.1517,2.1459,2.1465,2.1469,2.1699,2.1701,2.1704,0,0,0,0,0,0,2.1028,2.1047,2.1209,2.1138,2.1159,2.1207,2.1249,2.1257,2.1285,2.1339,2.1348,2.1301,2.1393,2.1409,2.1488,2.1521,2.1468,2.1474,2.1696,2.1699,2.1702,2.1714,0,0,0,0,0,0,2.1022,2.1045,2.1076,2.1138,2.1162,2.1275,2.1252,2.126,2.1297,2.1296,2.136,2.1369,2.1393,2.1478,2.1495,2.153,2.148,2.1693,2.1697,2.1701,2.1711,2.1718,2.1723,0,0,0,0,0,2.1014,2.1075,2.1077,2.1096,2.1202,2.1277,2.1291,2.1316,2.1299,2.1331,2.1365,2.1367,2.1515,2.1486,2.1505,2.1542,2.1691,2.1696,2.1701,2.1708,2.1716,2.1723,0,0,0,0,0,0,2.1016,2.1084,2.1087,2.117,2.1218,2.1279,2.1319,2.1324,2.1378,2.1375,2.1406,2.142,2.1497,2.1528,2.1494,2.1624,2.1601,2.1611,2.1601,2.1609,2.1615,2.1605,2.1485,0,0,0,0,0,2.1026,2.1081,2.1138,2.1206,2.1229,2.127,2.1304,2.1319,2.137,2.139,2.1431,2.148,2.1538,2.1575,2.1632,2.1716,2.173,2.1752,2.1758,2.1763,2.1769,2.1815,2.1825,2.172,2.172,2.172,0,0,2.1047,2.1091,2.1124,2.1207,2.1246,2.1302,2.1287,2.1348,2.1389,2.14,2.1475,2.1507,2.1565,2.1646,2.1684,2.1674,2.1802,2.1769,2.1772,2.1777,2.1822,2.1831,2.184,2.1724,2.1723,2.1722,0,0,2.1115,2.1154,2.1214,2.1253,2.1312,2.1338,2.1353,2.1413,2.1434,2.151,2.1519,2.157,2.1669,2.1709,2.1742,2.1825,2.1828,2.1843,2.1873,2.1918,2.1926,2.1934,2.1961,2.1971,2.185,2.185,2.185,0,2.1134,2.1219,2.1245,2.1305,2.134,2.1352,2.1413,2.145,2.1524,2.1549,2.1537,2.166,2.17,2.179,2.181,2.1838,2.1854,2.1834,2.1923,2.1931,2.1938,2.1965,2.1975,2.1851,2.1851,2.1851,2.1851,0,2.1239,2.1297,2.1339,2.1409,2.145,2.151,2.1546,2.1584,2.1596,2.1624,2.1702,2.175,2.1815,2.1838,2.1851,2.193,2.1922,2.1916,2.1894,2.1949,2.1974,2.1985,2.1853,2.1852,2.1852,2.1851,0,0,2.131,2.1393,2.1408,2.1439,2.1504,2.155,2.1611,2.1674,2.1706,2.1757,2.1808,2.1892,2.1886,2.1924,2.1942,2.1981,2.2042,2.1971,2.1972,2.1981,2.213,2.2133,2.2144,2.2045,2.2047,2.2049,2.2125,0,2.1383,2.1491,2.1516,2.1608,2.1662,2.1674,2.1727,2.1772,2.18,2.1851,2.1882,2.194,2.1929,2.1952,2.1991,2.2026,2.2072,2.2021,2.2093,2.2095,2.2076,2.2158,2.2161,2.223,2.2135,2.2137,2.2138,0,2.1483,2.1535,2.1632,2.1689,2.1712,2.1759,2.1818,2.1867,2.1919,2.1937,2.1979,2.1992,2.2056,2.2032,2.212,2.2085,2.2116,2.2138,2.2141,2.2147,2.2118,2.2165,2.2253,2.2263,2.2155,2.2153,2.2152,0,2.1523,2.1617,2.1687,2.1714,2.1783,2.1815,2.1845,2.1896,2.1932,2.1984,2.2008,2.2068,2.21,2.2146,2.2175,2.2155,2.2261,2.2239,2.2277,2.2276,2.2297,2.2295,2.239,2.232,2.232,2.232,2.2319,0,2.1601,2.1659,2.1705,2.1748,2.1814,2.1843,2.1907,2.1938,2.1983,2.2032,2.2047,2.2093,2.213,2.2181,2.2205,2.2273,2.2289,2.2304,2.231,2.2302,2.23,2.2321,2.2317,2.2322,2.2322,2.2321,2.2321,0,2.1656,2.1689,2.1766,2.1824,2.184,2.1886,2.1937,2.1979,2.2007,2.2069,2.2085,2.213,2.2191,2.2225,2.2303,2.2319,2.2394,2.2398,2.2376,2.2378,2.2413,2.2408,2.2523,2.2539,2.246,2.2461,2.2462,0,2.1702,2.1747,2.1811,2.1844,2.1874,2.1928,2.1965,2.1995,2.2033,2.2095,2.213,2.2191,2.2242,2.2339,2.2379,2.2438,2.2442,2.2478,2.2451,2.2441,2.244,2.2436,2.244,2.2482,2.2483,2.2484,2.2484,0,2.1781,2.1795,2.1847,2.1904,2.1947,2.1994,2.204,2.2067,2.2105,2.2147,2.2208,2.2247,2.2325,2.2386,2.2448,2.248,2.2488,2.2493,2.2504,2.2496,2.248,2.2487,2.2387,2.2489,2.2489,2.2488,2.2488,2.2488,2.1833,2.1872,2.1922,2.1979,2.2017,2.206,2.2102,2.2135,2.2187,2.2252,2.2267,2.2332,2.2383,2.2467,2.25,2.2552,2.2545,2.2562,2.2566,2.2569,2.2569,2.2473,2.2563,2.2563,2.2563,2.2563,2.2563,0,2.191,2.1943,2.1995,2.2059,2.2103,2.2107,2.2158,2.2195,2.2252,2.2298,2.2347,2.2418,2.2477,2.2521,2.2581,2.2614,2.2619,2.2629,2.2626,2.2632,2.2573,2.2556,2.2623,2.2623,2.2623,2.2623,2.2623,2.2623,2.1956,2.2023,2.2043,2.2129,2.2162,2.2224,2.2253,2.2293,2.233,2.2407,2.2456,2.2484,2.253,2.2594,2.2648,2.2659,2.268,2.2689,2.27,2.2643,2.2637,2.2631,2.2615,2.2693,2.2693,2.2756,2.2756,2.2757]},{"header":{"parameterUnit":"m.s-1","parameterCategory":1,"la1":30.2991,"la2":30.254,"lo1":-89.0895,"lo2":-89.0444,"dy":0.0017,"dx":0.0017,"nx":28,"ny":28,"refTime":"2025-11-11T03:00:00:Z","depth":0,"parameterNumber":3,"parameterNumberName":"V-component_of_WINDS"},"data":[0,0,0,0,0,0,0,0,0,0,0,0,0,0,0,0,0,0,0,0,0,0,0,0,0,0,0,0,0,0,0,0,0,0,0,0,0,0,0,0,0,0,0,0,0,0,0,0,0,0,0,0,0,0,0,0,0,0,0.4356,0.4355,0,0.4307,0.4307,0.4306,0.4273,0.4273,0.4273,0.4273,0.4222,0.4221,0.422,0,0,0,0,0,0,0,0,0,0,0,0,0,0.4418,0.4417,0.4356,0.4355,0.4355,0.4308,0.4307,0.4306,0.4273,0.4273,0.4273,0.4273,0.4222,0.4221,0.4219,0,0,0,0,0,0,0,0,0,0,0,0,0,0.4382,0.4417,0.4356,0.4333,0.433,0.4308,0.4307,0.4306,0.4274,0.4273,0.4273,0.4273,0.4223,0.4221,0.4219,0.4216,0,0,0.4214,0.4213,0,0,0,0,0,0,0,0,0.4384,0.438,0.4337,0.4334,0.4331,0.4296,0.431,0.4276,0.4274,0.4295,0.4273,0.4272,0.4247,0.4243,0.4235,0.4213,0.4211,0.4214,0.4213,0.4212,0.4212,0,0,0,0,0,0,0,0.4387,0.4382,0.4337,0.4336,0.4333,0.4324,0.4319,0.4303,0.4273,0.4293,0.4291,0.4285,0.4245,0.4236,0.4233,0.421,0.4214,0.4212,0.4211,0.4211,0.4183,0.4183,0,0,0,0,0,0,0.4393,0.4384,0.4338,0.4335,0.4358,0.4323,0.4317,0.4308,0.4273,0.4268,0.4286,0.4284,0.4239,0.4235,0.4231,0.4224,0.4212,0.421,0.4209,0.4183,0.4183,0.4183,0,0,0,0,0,0,0.4395,0.4389,0.434,0.4359,0.4352,0.4322,0.4312,0.4307,0.4298,0.4268,0.4262,0.4282,0.4239,0.4234,0.422,0.4222,0.421,0.4208,0.4182,0.4183,0.4183,0.4211,0,0,0,0,0,0,0.4397,0.439,0.4389,0.4359,0.4351,0.433,0.4312,0.4306,0.4296,0.4293,0.4263,0.4258,0.4238,0.4222,0.4218,0.422,0.4207,0.4182,0.4182,0.4183,0.421,0.4213,0.4215,0,0,0,0,0,0.4399,0.4399,0.4389,0.4384,0.4349,0.433,0.4326,0.4303,0.4296,0.4294,0.4274,0.4259,0.4223,0.4221,0.4216,0.4217,0.4182,0.4182,0.4183,0.4209,0.4212,0.4215,0,0,0,0,0,0,0.4429,0.4394,0.4383,0.4374,0.4355,0.4325,0.4322,0.4308,0.4291,0.4289,0.4261,0.4255,0.4244,0.4229,0.4228,0.4212,0.42,0.42,0.4222,0.4225,0.4227,0.4231,0.4205,0,0,0,0,0,0.4435,0.4423,0.4393,0.4387,0.4378,0.4352,0.4343,0.4327,0.4307,0.4299,0.4278,0.4259,0.4243,0.4233,0.4216,0.4208,0.42,0.4206,0.4208,0.421,0.421,0.4204,0.4206,0.4185,0.4185,0.4185,0,0,0.4446,0.4425,0.4419,0.4392,0.4376,0.4364,0.4345,0.4333,0.4324,0.4297,0.4282,0.4267,0.4243,0.4231,0.4225,0.4219,0.4214,0.4211,0.4213,0.4212,0.4205,0.4207,0.4209,0.4186,0.4186,0.4186,0,0,0.446,0.4444,0.4437,0.4421,0.4397,0.4379,0.4378,0.4349,0.4338,0.4323,0.4303,0.4291,0.4264,0.4248,0.4236,0.4244,0.4228,0.4239,0.4252,0.4246,0.4248,0.4249,0.4251,0.4253,0.4239,0.4239,0.4239,0,0.4477,0.4458,0.4435,0.4424,0.4412,0.4388,0.438,0.4366,0.4338,0.433,0.4323,0.4289,0.4271,0.4256,0.4257,0.4249,0.4246,0.4242,0.4249,0.425,0.4251,0.4253,0.4254,0.4241,0.424,0.424,0.424,0,0.448,0.4467,0.4464,0.4438,0.4426,0.4417,0.4392,0.4383,0.4368,0.4351,0.4336,0.4314,0.4292,0.4287,0.4273,0.4269,0.4266,0.4255,0.4243,0.4255,0.4257,0.4257,0.4243,0.4242,0.4242,0.4241,0,0,0.4511,0.4473,0.4472,0.446,0.4431,0.4421,0.441,0.439,0.4382,0.4363,0.4353,0.4331,0.4321,0.4307,0.4291,0.4286,0.4293,0.4275,0.4274,0.4279,0.4287,0.4296,0.4297,0.4283,0.4283,0.4283,0.4289,0,0.4521,0.4502,0.448,0.4468,0.4456,0.4432,0.4423,0.4404,0.4388,0.4374,0.4356,0.434,0.4327,0.4319,0.4313,0.4293,0.4294,0.4292,0.4273,0.4272,0.4279,0.4298,0.4307,0.4314,0.429,0.429,0.429,0,0.453,0.4513,0.45,0.4472,0.4466,0.4458,0.4438,0.4425,0.4403,0.4392,0.4377,0.4359,0.4346,0.4336,0.4317,0.4316,0.4307,0.4296,0.4295,0.4293,0.4282,0.4296,0.4316,0.4317,0.429,0.429,0.429,0,0.4554,0.4528,0.4516,0.4507,0.4474,0.4469,0.4456,0.4433,0.4422,0.4404,0.4396,0.4377,0.4366,0.4351,0.4328,0.4322,0.4312,0.4299,0.4301,0.4302,0.43,0.43,0.4319,0.4294,0.4294,0.4294,0.4294,0,0.4567,0.456,0.4527,0.452,0.4511,0.4486,0.4477,0.4461,0.4442,0.4431,0.4409,0.4398,0.4369,0.4355,0.4337,0.4324,0.432,0.4309,0.4305,0.4311,0.4313,0.4305,0.4304,0.4294,0.4294,0.4294,0.4294,0,0.4593,0.4571,0.4556,0.4527,0.452,0.4514,0.4489,0.4481,0.4463,0.4449,0.4444,0.4416,0.4399,0.4375,0.435,0.4338,0.4327,0.432,0.4335,0.4332,0.4335,0.4335,0.4349,0.435,0.4325,0.4325,0.4326,0,0.4603,0.4597,0.4567,0.4558,0.4545,0.4531,0.452,0.4495,0.4484,0.4459,0.4454,0.4435,0.4418,0.4391,0.4368,0.4349,0.4341,0.4347,0.4338,0.4344,0.4341,0.4341,0.434,0.4349,0.435,0.435,0.435,0,0.4622,0.4611,0.4596,0.4578,0.4565,0.4549,0.4531,0.4525,0.4497,0.4485,0.4468,0.4455,0.4429,0.4411,0.4388,0.4373,0.4357,0.4354,0.4353,0.436,0.4369,0.4364,0.4341,0.4353,0.4353,0.4353,0.4353,0.4353,0.464,0.4633,0.4611,0.4595,0.458,0.4564,0.4555,0.4536,0.4521,0.4499,0.4485,0.4468,0.4445,0.4414,0.4399,0.4385,0.4379,0.4378,0.4377,0.4378,0.438,0.4371,0.4381,0.4381,0.4381,0.4381,0.4381,0,0.4658,0.4643,0.4628,0.4605,0.4592,0.4579,0.4559,0.4549,0.4534,0.4515,0.4499,0.4479,0.446,0.4436,0.4416,0.4409,0.4401,0.4404,0.4405,0.4401,0.4387,0.439,0.4411,0.4411,0.4411,0.4411,0.4411,0.4411,0.4666,0.4654,0.4641,0.4621,0.4605,0.4589,0.4578,0.4564,0.4548,0.4526,0.4511,0.4496,0.4474,0.4452,0.4434,0.4428,0.4421,0.4427,0.4418,0.4405,0.4402,0.44,0.4402,0.4426,0.4426,0.4433,0.4433,0.4433]}]]